Tracking 32968 objects as of 18-Jan-2026
HD Live streaming from Space Station
objects crossing your sky now

CZ-6A DEB

Track CZ-6A DEB now!
10-day predictions


NORAD ID: 56623
Int'l Code: 2022-151AEX
Perigee: 827.1 km
Apogee: 979.2 km
Inclination: 98.9 °
Period: 102.9 minutes
Semi major axis: 7274 km
RCS: Unknown
Launch date: November 11, 2022
Source: People's Republic of China (PRC)
Launch site: Taiyaun Space Center, China (TSC)

Note: This is SATELLITE DEBRIS
Your satellite tracking list
Your tracking list is empty




NASA's NSSDC Master Catalog

Two Line Element Set (TLE):
1 56623U 22151AEX 26014.66308539  .00000987  00000-0  67470-3 0  9997
2 56623  98.8819 356.3659 0104500  99.1280 262.1725 13.99363932139762
Source of the keplerian elements: AFSPC